Aérodrome :
LOGIN :

S'inscrire | Disclaimer

   EN    FR    IT 

 










Légende :    VFR   VFR Marginal   IFR   IFR Intensif   IFR Très Intensif
Visi : 
Plafond : 
>= 8 km
>= 3000ft
5 à 8 km
1000 à 3000 ft
1500m à 5 km
500 à 1000 ft
800 à 1500m
200 à 500 ft
< 800m
< 200 ft
Symboles :   Orages  Brouillard  Fortes neiges  Fortes précipitations  Vent > 20 kt
SIGMETs :   Divers  Orages  Givrage  Turbulence  Onde Orograph.  Cendres Volcan.







- Altitude de l'aérodrome : 628 ft
- Code IATA : CMR
- Voir les cartes d'approche


LFGA - Colmar-Houssen

DERNIER METAR :
  • 171900Z AUTO VRB02KT 9999 BKN043 BKN049 03/01 Q1013

METARs EXPIRÉS :
  • 171830Z AUTO 22003KT 180V260 9999 FEW019 SCT044 03/00 Q1012
  • 171800Z AUTO 24004KT 200V280 9999 FEW024 SCT044 BKN054 04/01 Q1012
  • 171730Z AUTO 25012KT 9999 RA FEW020 SCT027 BKN034 05/01 Q1012
  • 171700Z AUTO 24010KT 9999 FEW046 BKN064 06/M01 Q1011
  • 171630Z AUTO 23008KT 9999 FEW058 SCT068 06/M00 Q1010

TAF N/A
Pas de NOTAMs connus pour ce terrain.



MET'MAP, la Météo Aéronautique d'un coup d'oeil ! - Copyright ORBIFLY Décembre 2007 - Disclaimer

ORBIFLY MET'MAP TEAM :

Programmation & Développement : Alexandra Zaïnal
Conception & Développement : Baudouin d'Aumeries
Co-Programmation & Développement : Marc-Olivier Méhu
Soutien technique & logistique : Manuel Goepfert

Contact : metmap@orbifly.com




SOURCES & CREDITS :

   NOAA